Temp
13 13 14 13 14 14 14 14 14 14 15 15 15 16 16 17 19 19 20 21 21 21 20 20 21 21 20 21 22 21 17 16 20 21 22 25 25 26 26 26 26 25 25 25 24
12 13 13 13 13 14 14 14 14 14 14 15 15 16 16 17 18 20 22 21 21 20 20 20 21 20 20 21 22 20 15 19 20 23 23 25 25 26 26 26 26 25 25 24 21
12 12 13 13 13 13 13 14 14 14 14 14 14 15 16 16 18 21 21 22 21 20 20 20 20 20 20 21 21 20 18 20 22 23 24 25 25 25 24 23 26 24 23 22 21
11 12 12 13 13 13 13 13 13 13 13 14 14 14 15 16 16 20 21 21 20 20 20 20 20 20 19 19 22 20 21 21 23 24 24 24 25 25 25 25 25 24 23 21 21
11 11 12 12 12 12 12 12 12 13 13 13 13 14 14 15 18 20 20 20 20 20 20 20 20 20 19 20 21 20 21 23 23 24 24 25 24 24 25 24 24 23 22 21 20
10 10 11 12 12 12 12 12 12 12 12 12 12 13 13 12 19 19 19 19 20 20 20 19 20 20 20 20 19 22 22 21 22 23 24 23 23 23 25 23 23 23 22 22 21
9 10 10 11 12 11 11 12 11 11 12 12 12 11 11 16 18 19 18 18 19 20 20 20 20 20 20 19 21 21 20 19 21 22 22 23 21 21 25 24 23 22 21 20 20
6 9 10 10 11 12 11 11 11 11 11 11 11 10 10 16 18 17 17 18 18 19 19 20 19 20 20 21 20 19 19 18 21 21 22 22 20 21 25 24 22 20 20 19 19
7 6 8 9 9 11 11 10 10 10 10 10 10 10 10 15 17 19 18 18 18 18 18 19 19 19 20 18 17 17 17 17 18 20 20 21 20 21 24 23 21 19 19 18 17
6 7 6 9 9 10 10 9 9 9 9 8 9 9 14 15 17 19 19 18 18 18 18 19 19 16 14 14 16 16 16 17 17 20 20 19 20 20 23 23 21 18 17 17 17
4 7 7 7 9 8 8 7 7 7 7 9 11 14 16 17 16 17 19 17 17 18 15 17 14 15 17 16 18 18 17 17 17 19 19 19 18 20 22 21 18 16 16 16 16
4 5 8 7 7 8 8 7 8 12 9 10 12 11 16 15 14 17 17 17 17 16 16 15 14 17 17 16 17 17 16 17 18 19 19 19 20 19 20 21 19 16 16 16 15
4 4 6 7 6 8 7 7 10 12 10 11 11 11 14 14 13 16 17 17 16 15 15 15 16 18 17 16 17 17 16 17 17 19 20 20 18 19 21 21 20 17 17 14 14
4 3 4 7 6 7 7 8 10 11 9 11 10 12 12 13 13 17 17 17 16 15 16 15 17 17 17 17 17 16 18 19 18 17 17 19 17 17 19 19 17 16 15 14 13
3 3 4 6 6 7 7 9 10 11 8 14 13 14 15 14 16 17 18 18 16 16 16 16 16 16 16 17 18 17 19 18 18 17 17 17 15 16 18 18 14 14 14 13 14
4 3 3 4 6 7 7 10 9 8 7 13 14 12 13 14 17 18 17 17 18 16 16 16 18 17 18 19 19 19 18 18 18 16 15 17 16 14 15 17 14 14 14 13 14
3 3 3 3 5 6 7 6 7 7 14 14 14 13 13 13 15 17 17 16 15 15 14 16 16 18 19 17 18 19 18 15 14 14 15 18 16 17 17 16 15 14 13 14 14
3 3 2 3 4 6 6 5 7 10 13 15 15 14 14 15 15 17 16 15 15 15 15 14 14 17 17 17 18 18 18 12 13 13 15 17 15 16 16 17 16 15 14 14 14
3 2 2 2 4 6 4 5 7 10 12 14 15 13 14 15 15 16 16 15 16 16 15 14 15 18 19 18 18 17 17 17 15 15 12 14 16 15 14 15 14 13 13 13 13
2 1 2 3 4 6 3 5 8 12 13 14 15 15 14 15 15 15 16 16 16 17 17 15 14 17 18 19 18 18 18 16 13 12 12 14 14 13 12 12 13 13 11 11 12
2 2 3 3 4 5 4 5 8 11 13 14 14 14 15 15 16 15 16 16 17 17 17 16 13 15 17 16 16 16 17 17 15 9 11 12 14 14 13 13 13 12 11 11 11
1 2 2 3 4 5 4 7 9 10 11 12 12 12 14 15 15 15 15 16 17 18 15 16 15 14 15 18 18 18 17 15 13 11 8 8 12 12 13 13 13 11 10 11 12
2 2 2 3 4 3 5 7 10 10 11 10 11 12 13 15 14 15 16 16 16 16 14 15 12 11 13 16 17 17 17 16 11 9 11 13 12 12 12 11 11 10 10 12 11
1 1 2 3 4 2 5 6 8 10 11 9 10 11 13 13 14 14 14 14 13 15 17 16 12 13 14 14 15 15 17 17 15 12 11 10 12 11 11 12 10 9 11 11 11
1 1 2 3 3 2 5 7 7 7 9 10 9 10 11 12 11 12 11 11 11 11 11 15 13 14 15 15 16 16 15 15 15 15 13 14 13 12 12 11 9 10 11 10 10
1 1 2 3 4 2 4 7 7 8 8 9 10 10 10 9 12 10 10 10 12 10 10 9 8 11 12 13 10 11 13 15 12 13 14 14 15 14 14 11 10 10 9 9 9
2 3 4 4 4 4 4 7 8 8 9 10 10 10 9 8 6 6 7 7 7 9 7 8 8 9 12 11 11 10 9 10 12 13 14 13 14 15 12 11 10 9 9 9 8
Height
1504 1506 1508 1510 1512 1514 1515 1516 1517 1518 1518 1519 1519 1519 1518 1517 1516 1514 1511 1513 1513 1513 1515 1516 1517 1519 1519 1517 1519 1520 1528 1533 1525 1517 1513 1504 1504 1503 1503 1502 1503 1506 1505 1507 1510
1499 1501 1503 1506 1508 1510 1512 1513 1515 1515 1516 1517 1517 1517 1516 1515 1513 1509 1511 1509 1510 1511 1513 1515 1516 1518 1519 1516 1515 1516 1528 1521 1512 1509 1510 1506 1504 1504 1504 1501 1502 1503 1507 1509 1512
1492 1495 1497 1501 1504 1506 1508 1510 1511 1513 1514 1514 1514 1514 1514 1513 1512 1506 1506 1506 1508 1509 1511 1513 1515 1517 1518 1515 1513 1511 1517 1511 1507 1508 1509 1507 1506 1505 1505 1505 1502 1502 1506 1511 1513
1486 1490 1492 1495 1499 1502 1504 1506 1508 1509 1511 1511 1511 1512 1511 1513 1516 1504 1505 1505 1507 1507 1508 1510 1513 1516 1515 1515 1511 1514 1506 1508 1504 1505 1506 1503 1503 1504 1503 1504 1503 1501 1504 1510 1513
1478 1484 1487 1490 1493 1497 1500 1502 1504 1506 1508 1509 1509 1509 1510 1509 1500 1503 1504 1505 1505 1505 1506 1508 1511 1513 1513 1510 1509 1509 1504 1503 1502 1502 1500 1499 1500 1501 1501 1504 1504 1505 1507 1509 1510
1472 1476 1480 1484 1488 1492 1495 1498 1500 1502 1504 1506 1506 1506 1508 1505 1498 1499 1503 1504 1505 1505 1506 1507 1509 1512 1511 1508 1508 1504 1503 1499 1498 1499 1498 1497 1496 1498 1499 1501 1502 1503 1505 1506 1507
1462 1466 1473 1478 1482 1487 1491 1493 1496 1498 1501 1503 1503 1502 1501 1490 1496 1496 1497 1500 1503 1503 1504 1506 1507 1510 1508 1506 1502 1501 1503 1497 1493 1494 1495 1495 1496 1495 1495 1497 1499 1501 1502 1503 1504
1454 1458 1464 1471 1476 1481 1486 1487 1492 1495 1497 1499 1499 1499 1490 1486 1493 1492 1494 1496 1499 1501 1502 1503 1504 1505 1504 1502 1500 1501 1503 1509 1491 1491 1489 1494 1500 1487 1490 1493 1495 1498 1500 1500 1502
1448 1450 1454 1462 1469 1475 1481 1483 1488 1491 1493 1495 1497 1497 1488 1482 1481 1485 1489 1491 1495 1498 1500 1502 1502 1502 1501 1505 1510 1505 1514 1508 1500 1488 1490 1492 1493 1480 1484 1487 1490 1493 1495 1496 1499
1439 1441 1447 1452 1462 1469 1475 1479 1483 1487 1490 1492 1493 1498 1482 1472 1475 1477 1483 1488 1492 1496 1498 1499 1501 1502 1502 1507 1517 1509 1510 1503 1503 1489 1489 1491 1485 1478 1478 1479 1482 1487 1491 1494 1497
1430 1435 1438 1446 1454 1462 1467 1476 1479 1486 1480 1473 1471 1470 1466 1469 1471 1471 1476 1484 1489 1493 1496 1494 1503 1503 1484 1494 1493 1496 1501 1503 1493 1486 1491 1486 1482 1475 1473 1476 1481 1485 1489 1492 1495
1422 1427 1433 1440 1444 1452 1458 1458 1459 1468 1470 1468 1468 1468 1465 1466 1470 1466 1473 1478 1481 1484 1490 1496 1497 1478 1489 1492 1495 1497 1500 1499 1487 1483 1488 1483 1478 1473 1472 1472 1476 1480 1486 1487 1490
1414 1420 1424 1431 1437 1440 1445 1455 1463 1462 1469 1457 1456 1458 1461 1466 1465 1462 1467 1470 1472 1480 1481 1483 1478 1481 1487 1491 1494 1492 1495 1492 1493 1481 1480 1480 1485 1477 1467 1468 1471 1478 1479 1484 1484
1409 1413 1416 1421 1434 1430 1434 1456 1461 1463 1475 1449 1443 1441 1453 1462 1457 1456 1460 1465 1468 1471 1477 1479 1479 1479 1483 1486 1485 1492 1480 1482 1484 1490 1499 1478 1498 1480 1472 1470 1471 1474 1478 1481 1484
1404 1407 1409 1415 1421 1422 1430 1454 1461 1465 1480 1422 1423 1426 1429 1438 1436 1442 1453 1457 1458 1461 1467 1466 1469 1474 1477 1473 1473 1481 1475 1477 1478 1484 1485 1484 1495 1480 1467 1471 1473 1472 1474 1477 1482
1395 1398 1404 1408 1413 1423 1431 1441 1455 1466 1452 1410 1406 1413 1424 1426 1430 1437 1443 1450 1453 1458 1456 1459 1458 1461 1459 1462 1467 1468 1472 1474 1475 1483 1491 1480 1486 1484 1472 1463 1469 1472 1475 1476 1481
1385 1391 1395 1402 1401 1420 1423 1434 1445 1447 1393 1395 1395 1402 1408 1416 1427 1426 1431 1440 1445 1458 1456 1454 1452 1453 1456 1462 1461 1463 1472 1493 1503 1498 1482 1465 1477 1465 1453 1453 1456 1462 1470 1476 1481
1377 1385 1386 1393 1398 1409 1410 1426 1414 1380 1387 1373 1379 1397 1402 1405 1414 1413 1421 1426 1431 1435 1447 1458 1463 1448 1443 1449 1455 1456 1461 1494 1505 1499 1480 1465 1470 1458 1445 1446 1450 1459 1467 1474 1480
1372 1376 1380 1382 1389 1394 1397 1404 1376 1363 1378 1377 1376 1391 1397 1397 1398 1409 1409 1412 1413 1420 1438 1448 1446 1430 1431 1438 1445 1453 1456 1454 1475 1472 1489 1471 1455 1448 1444 1444 1453 1459 1467 1473 1478
1361 1367 1363 1372 1381 1382 1387 1382 1367 1357 1364 1365 1367 1374 1387 1386 1393 1398 1404 1397 1408 1410 1416 1428 1441 1424 1425 1431 1435 1438 1443 1464 1474 1487 1489 1468 1459 1458 1457 1456 1458 1460 1466 1472 1478
1355 1358 1355 1365 1376 1361 1356 1371 1365 1362 1364 1358 1360 1372 1373 1375 1378 1389 1386 1389 1392 1402 1410 1417 1430 1429 1423 1427 1431 1439 1438 1439 1454 1476 1481 1476 1455 1435 1443 1445 1450 1458 1463 1467 1472
1344 1344 1347 1358 1355 1341 1354 1346 1355 1367 1360 1358 1360 1365 1364 1368 1373 1379 1378 1378 1382 1392 1406 1408 1421 1430 1424 1414 1415 1418 1425 1434 1452 1468 1471 1474 1455 1435 1438 1443 1446 1454 1461 1466 1470
1330 1339 1340 1346 1335 1340 1344 1350 1350 1357 1357 1360 1361 1358 1363 1366 1375 1372 1372 1375 1379 1386 1396 1405 1419 1439 1431 1421 1414 1413 1414 1421 1440 1454 1453 1457 1449 1436 1437 1444 1449 1452 1458 1462 1465
1323 1327 1331 1334 1332 1339 1338 1346 1350 1353 1353 1358 1361 1359 1366 1368 1363 1372 1374 1377 1379 1382 1384 1392 1406 1406 1410 1404 1407 1415 1409 1411 1422 1442 1447 1446 1442 1442 1443 1443 1450 1454 1456 1460 1464
1311 1314 1315 1316 1324 1329 1333 1338 1344 1347 1350 1354 1359 1360 1362 1360 1370 1372 1376 1380 1381 1381 1384 1386 1396 1397 1399 1396 1395 1398 1405 1408 1409 1413 1429 1426 1432 1434 1435 1439 1442 1446 1453 1458 1462
1297 1304 1310 1312 1321 1328 1330 1326 1335 1342 1343 1347 1344 1355 1357 1360 1359 1372 1371 1377 1376 1382 1387 1390 1403 1398 1404 1401 1408 1411 1406 1403 1412 1414 1415 1418 1419 1420 1428 1436 1444 1445 1450 1455 1459
1291 1298 1300 1303 1313 1320 1319 1318 1318 1332 1340 1341 1346 1352 1357 1361 1363 1369 1368 1374 1379 1382 1391 1392 1399 1403 1402 1404 1412 1412 1404 1406 1405 1404 1407 1418 1414 1416 1427 1430 1437 1442 1446 1451 1456
Wind_Speed
31 31 30 28 26 25 24 22 20 18 17 15 14 13 14 16 16 17 19 10 8 11 5 4 6 4 5 8 10 7 1 3 4 4 6 2 2 2 5 5 2 10 16 17 20
32 32 31 30 28 26 25 23 21 20 17 15 14 14 14 16 18 21 16 15 12 8 10 10 8 7 6 6 2 3 3 5 6 2 4 3 4 6 1 0 2 6 14 20 23
34 33 32 32 30 27 26 24 23 21 18 16 15 14 13 12 17 10 7 11 12 11 11 10 9 9 7 13 7 3 6 4 16 22 11 2 3 3 2 2 6 13 22 24 22
35 34 34 32 31 30 27 25 24 22 20 18 16 14 12 8 5 3 2 5 6 9 12 15 13 4 4 3 10 5 17 9 17 24 11 3 3 2 3 1 7 24 27 28 25
35 35 35 34 32 31 29 26 24 22 21 19 17 14 11 10 22 8 2 5 4 5 6 9 11 7 3 4 7 4 9 17 19 16 14 8 5 6 5 12 21 24 25 24 23
37 37 35 35 33 31 30 27 25 23 21 19 17 15 12 11 14 17 9 11 9 8 7 8 5 8 13 14 4 13 18 18 15 13 9 3 3 7 10 17 23 22 20 16 15
36 36 36 35 34 32 30 28 26 23 21 19 17 15 16 31 11 13 15 15 12 14 13 12 8 8 10 7 8 5 6 9 6 5 4 6 5 6 13 11 23 23 23 20 16
14 33 34 35 34 32 30 27 26 23 21 19 17 15 15 24 24 23 16 17 16 15 14 11 12 10 8 10 9 3 1 4 4 3 7 6 10 11 17 15 25 27 27 23 20
38 17 33 36 34 32 30 27 25 22 20 17 14 12 14 10 24 30 27 23 15 18 15 9 8 5 6 2 4 2 5 8 9 6 4 5 8 13 27 15 27 31 31 28 25
42 36 18 32 34 31 30 28 24 22 18 14 13 4 22 15 20 28 31 27 21 13 11 9 3 2 1 4 10 7 5 4 8 4 2 11 17 12 8 14 29 32 34 32 29
33 42 30 26 32 33 34 29 13 9 23 16 16 21 2 10 6 20 29 27 25 15 7 9 5 12 26 10 4 4 4 6 8 9 9 11 9 12 13 11 17 29 32 33 30
32 38 35 30 27 37 38 39 33 5 8 41 32 24 32 16 8 12 18 24 18 17 7 3 13 25 5 7 11 8 10 15 13 13 9 8 7 8 4 11 25 31 30 36 37
37 32 38 40 19 42 47 42 26 16 6 11 35 40 38 14 12 18 26 27 11 11 14 18 12 12 9 10 11 14 15 14 10 13 8 1 6 7 6 7 17 34 38 33 42
36 35 31 43 24 44 53 44 16 12 4 7 13 18 29 26 11 31 20 28 8 20 15 12 19 12 13 15 15 14 14 13 8 5 7 7 7 7 5 6 7 26 34 37 40
36 36 27 42 21 39 47 39 19 16 5 9 14 18 33 31 17 31 31 29 14 11 11 10 13 20 20 21 17 12 13 10 9 4 1 4 3 7 7 8 8 19 32 37 41
37 33 29 25 32 32 43 45 29 5 14 7 16 16 15 24 18 19 27 20 13 8 8 15 16 14 18 20 16 13 4 0 2 2 10 8 7 4 6 9 5 13 25 34 40
38 35 31 30 44 39 44 34 9 11 10 10 12 18 19 16 18 16 24 21 14 15 19 17 20 11 3 6 6 8 7 4 3 4 10 7 8 11 6 8 15 20 29 38 37
38 34 39 34 36 39 44 15 11 20 23 2 16 22 18 16 22 21 25 24 24 9 7 16 10 22 10 16 12 11 16 7 7 5 6 8 6 6 7 12 27 30 33 36 37
37 36 41 38 36 41 44 20 14 11 33 4 22 23 14 16 13 21 22 24 25 26 15 10 15 4 18 15 17 6 14 13 5 2 2 4 4 4 6 13 24 29 31 33 36
41 38 42 43 42 53 22 17 14 5 22 9 14 14 18 23 11 21 22 15 17 29 17 6 1 9 14 22 16 16 6 7 2 6 7 5 5 5 8 14 17 21 26 33 36
42 21 28 43 49 29 20 17 15 13 6 23 11 5 12 17 15 18 14 8 26 20 24 17 4 4 9 13 22 6 13 7 8 6 5 2 6 7 19 22 23 19 29 38 36
39 11 19 43 15 7 14 19 16 21 13 4 1 5 9 17 18 16 19 11 18 27 20 21 13 14 14 3 19 24 14 9 7 5 4 4 5 4 15 17 23 25 31 34 29
27 20 22 43 13 7 13 16 20 16 10 9 3 7 9 7 8 21 10 7 8 20 15 14 8 2 11 16 4 24 19 14 6 4 9 10 6 4 14 13 22 28 32 31 27
17 7 9 37 27 7 18 20 15 18 17 6 3 1 10 17 3 5 8 1 4 6 28 22 7 17 14 6 8 14 18 19 20 10 6 7 4 5 11 16 17 25 34 31 27
19 6 10 12 17 9 21 18 26 7 5 24 9 11 8 13 6 9 3 3 5 3 4 13 16 12 8 1 14 18 12 18 22 22 18 13 10 14 15 15 23 33 33 31 26
16 6 9 6 27 13 22 23 28 16 12 18 16 21 7 5 14 6 7 4 3 4 3 1 2 4 8 5 9 2 6 14 6 5 12 7 13 18 23 22 23 28 28 30 28
20 14 10 5 19 20 13 20 31 23 12 12 18 17 10 4 8 10 14 12 5 5 2 4 5 3 10 4 3 10 9 8 4 5 8 11 6 14 15 19 26 24 31 30 27
Wind_Direction
247 246 245 242 242 243 245 246 246 249 252 255 266 273 281 284 281 279 271 270 233 224 227 260 268 237 259 261 271 265 69 265 259 1 298 315 84 69 94 93 127 182 174 164 167
250 245 245 244 240 241 243 244 248 249 254 258 263 269 279 288 290 275 272 260 242 223 239 242 262 265 277 265 241 148 156 242 208 267 298 298 160 164 163 64 301 99 167 158 166
248 247 243 243 242 239 240 243 244 249 252 255 258 263 273 291 305 281 267 246 232 234 237 242 253 269 273 271 254 214 218 231 280 282 276 261 286 254 133 278 249 145 156 168 175
248 247 244 242 242 240 238 241 243 245 250 254 258 263 267 270 247 121 93 159 213 242 242 241 240 237 227 246 272 260 272 258 285 293 253 214 218 133 163 335 131 142 156 145 139
242 247 245 242 239 239 238 237 240 242 247 252 257 261 262 243 240 215 245 278 235 235 225 202 204 233 230 247 298 226 271 287 290 301 287 230 214 224 228 134 142 138 143 142 129
241 242 244 243 240 236 237 236 237 239 244 250 254 259 254 250 255 243 240 242 228 210 194 198 221 283 280 266 194 271 288 284 293 296 290 279 259 185 202 160 148 154 150 151 145
233 237 240 242 239 237 234 233 234 236 240 246 253 258 248 241 225 208 209 221 240 230 223 204 253 289 300 312 292 275 317 312 273 271 246 304 295 222 232 191 166 152 150 146 149
259 230 235 237 237 234 232 229 232 234 236 242 249 261 254 256 243 235 210 214 211 217 224 227 267 287 260 257 307 7 330 299 307 295 267 176 260 259 245 222 167 154 151 148 154
247 249 227 230 232 230 229 224 227 230 233 237 246 248 269 248 231 228 221 215 216 228 222 241 238 267 275 114 342 343 236 269 306 228 231 161 267 257 255 232 181 157 156 153 145
251 248 249 218 224 223 221 219 218 226 225 230 223 270 249 237 244 238 215 211 215 213 226 232 193 239 339 123 226 211 221 239 244 279 35 266 245 250 231 238 191 158 153 154 150
258 244 243 231 219 217 207 195 182 222 213 202 201 203 276 191 229 230 214 201 208 223 189 180 139 220 227 202 246 206 226 235 263 281 310 278 247 230 215 189 144 156 155 149 149
251 256 233 244 221 212 211 197 195 159 230 231 228 231 233 263 302 228 209 185 190 204 155 161 208 229 94 200 230 231 241 257 280 272 255 245 251 258 231 206 177 162 160 154 151
252 250 244 239 245 215 211 207 215 229 263 230 229 229 231 239 217 241 201 192 184 186 197 208 209 227 208 226 226 235 230 245 240 278 259 212 301 287 289 221 164 175 172 157 153
248 245 248 238 236 210 206 196 152 174 284 255 199 230 218 229 257 219 213 186 197 203 205 234 229 239 213 229 215 237 231 243 247 256 245 188 254 254 249 257 154 165 162 159 156
243 238 241 229 226 209 195 193 166 130 247 187 191 195 195 189 137 215 208 197 193 181 180 205 199 214 227 217 216 227 240 226 247 216 192 228 204 251 187 231 169 173 166 164 161
238 233 226 221 218 228 199 174 183 146 230 227 154 167 156 199 194 186 192 206 217 210 238 210 232 207 214 227 223 220 213 264 8 146 248 232 198 235 200 200 145 163 167 160 161
232 228 221 211 211 218 199 166 152 209 134 204 169 167 168 179 194 184 185 194 190 197 213 227 234 241 218 216 217 194 181 232 267 228 244 209 239 235 235 189 170 168 164 162 161
228 224 220 217 210 209 177 183 181 216 214 85 151 169 184 153 200 186 187 203 206 202 181 213 229 219 201 205 211 214 200 161 203 218 248 200 230 233 263 208 167 160 154 157 163
223 220 216 215 203 202 167 193 205 186 195 232 149 168 187 183 170 189 204 208 198 196 204 195 230 211 210 219 201 206 214 179 212 237 63 233 286 359 54 130 142 144 144 150 150
211 213 217 207 198 187 167 198 223 203 185 207 169 177 187 179 161 189 188 203 204 205 199 209 245 202 208 214 224 207 170 169 117 198 235 255 232 202 143 142 148 151 143 142 142
199 207 224 205 198 194 180 206 210 239 205 211 208 166 184 179 178 189 198 208 195 196 202 215 131 279 203 200 206 189 199 188 164 164 190 203 248 185 170 164 162 159 147 145 146
190 210 189 189 207 194 192 197 200 217 257 243 314 180 179 179 192 188 205 186 195 203 196 203 217 227 224 240 211 217 205 162 195 225 220 155 257 306 168 170 162 151 151 147 146
190 202 190 189 204 204 185 211 193 193 220 183 245 197 225 186 194 214 205 160 134 184 182 173 220 171 230 256 212 213 204 191 117 114 203 211 237 46 143 148 156 149 153 153 152
173 173 207 199 204 188 176 198 200 214 199 180 221 310 215 227 191 187 213 154 152 176 201 176 184 206 216 239 181 201 208 197 195 215 186 208 160 165 175 161 150 152 156 156 155
176 187 198 184 199 191 194 185 195 167 224 188 207 229 196 193 165 200 131 127 56 353 85 190 215 199 199 321 200 203 200 197 206 214 212 213 201 187 184 172 165 160 160 158 156
173 175 170 160 189 182 193 192 190 186 170 191 212 210 221 172 198 171 134 175 163 67 123 23 190 116 184 131 55 15 219 219 183 167 215 174 224 175 179 145 157 163 157 153 152
169 176 182 200 181 191 195 186 195 181 187 199 194 186 203 161 106 87 91 91 93 129 191 102 120 126 200 119 42 278 200 191 178 172 173 198 192 173 160 160 170 161 157 154 151